Theta_e
302 302 302 302 303 302 302 302 302 302 303 303 304 302 302 300 299 295 291 292 286 282 282 282 282 278 277 276 273 277 276 274 274 270 269 269 268 271 270 272 271 270 268 269 270 267 265 273 274 271 271 272 272 272
300 300 299 299 299 299 299 300 300 300 302 302 302 303 303 301 299 298 288 291 291 284 283 285 286 286 284 282 279 279 277 275 277 273 270 271 270 271 269 268 275 270 273 271 271 271 273 274 272 273 272 271 273 273
297 296 296 296 296 296 296 297 297 298 298 300 299 302 303 302 300 297 290 288 286 283 282 280 281 284 285 285 286 277 279 280 277 279 276 273 269 273 270 272 272 274 275 273 272 273 273 273 274 272 273 273 273 274
294 294 294 294 294 294 295 295 295 296 296 297 298 299 300 302 300 298 289 288 287 282 276 278 282 280 285 285 284 284 283 281 281 280 276 273 270 276 274 275 273 276 273 272 273 272 272 273 273 273 272 273 272 273
293 293 293 293 293 293 293 294 294 294 295 295 296 297 298 298 300 296 291 290 290 284 276 275 280 279 280 284 284 284 283 281 277 274 273 271 275 274 276 273 272 275 273 271 272 274 273 273 273 272 272 271 272 271
291 292 292 292 293 293 293 293 293 293 294 294 295 295 297 298 299 286 283 289 290 288 280 273 278 273 274 278 281 281 281 279 278 275 274 276 278 278 274 271 276 275 274 275 274 274 273 274 273 272 271 271 271 270
290 290 290 291 292 291 291 291 291 292 293 293 293 294 295 297 290 284 282 286 291 288 279 273 273 273 272 274 276 277 279 278 277 275 273 275 276 278 274 270 276 274 274 273 273 272 271 272 272 271 270 269 267 266
289 289 290 290 290 290 290 290 290 291 291 292 293 293 294 296 288 285 288 292 290 283 280 272 271 272 271 271 272 268 274 274 274 273 271 271 273 272 268 273 273 273 272 271 271 271 270 270 270 268 267 267 266 267
288 289 289 289 289 289 289 289 290 290 290 291 292 292 288 285 283 285 293 293 289 283 274 271 269 270 270 267 268 268 269 270 267 269 267 267 268 268 273 273 272 271 271 272 270 267 267 268 268 266 264 264 265 267
287 288 288 288 288 288 288 288 289 290 290 292 288 283 279 283 292 291 285 280 280 280 279 271 271 270 272 267 265 266 263 268 267 266 264 264 266 270 270 272 274 272 271 269 265 265 263 265 264 264 264 264 264 264
287 287 287 287 287 287 287 288 289 290 290 285 281 279 283 291 284 279 275 274 273 271 272 271 272 270 271 271 270 265 265 260 264 264 265 264 264 270 267 265 264 270 270 267 266 264 265 266 266 263 262 262 260 259
286 286 286 287 287 287 287 288 289 286 285 285 283 284 283 279 276 273 271 268 268 269 267 269 269 271 268 270 270 264 264 261 264 257 263 265 269 268 263 263 262 260 262 262 260 263 262 263 262 260 260 260 259 259
285 286 286 287 287 287 288 289 289 289 289 284 281 277 275 272 269 267 264 266 265 266 265 266 266 268 267 268 263 265 264 263 257 262 265 267 269 267 261 259 259 253 253 255 257 255 256 257 253 254 259 257 257 256
285 285 286 287 287 288 289 289 289 289 284 277 274 268 270 267 268 267 267 269 270 267 265 267 264 267 265 265 261 264 258 257 261 261 265 269 267 263 256 256 259 261 256 257 259 257 256 256 257 255 254 255 254 256
284 285 286 286 288 290 289 288 289 286 281 275 275 268 268 266 262 261 262 266 265 269 268 267 266 268 264 263 260 259 259 260 262 265 268 270 266 258 259 258 258 259 256 256 256 256 257 256 255 257 256 255 254 253
284 284 282 286 287 288 288 285 282 284 280 275 272 266 261 264 263 263 264 267 264 269 269 270 266 267 264 263 262 262 261 262 266 265 270 268 266 260 259 258 260 259 259 259 258 257 257 254 256 260 255 255 254 255
283 278 284 285 286 288 287 278 276 277 275 273 270 260 267 266 267 268 268 268 268 271 270 267 266 265 263 262 262 260 263 268 268 270 270 267 265 264 259 256 256 256 255 257 256 255 257 254 250 253 261 260 255 257
277 280 283 285 284 282 271 273 272 274 271 263 266 263 262 265 267 266 265 267 270 269 268 269 265 263 264 263 264 265 265 266 265 267 269 267 263 260 256 259 256 256 257 255 255 255 254 254 258 263 258 258 255 258
278 279 283 284 283 274 267 270 271 269 262 259 262 264 264 264 264 266 266 267 267 269 269 268 267 266 266 263 266 265 263 264 269 269 267 261 259 258 256 254 255 255 255 257 257 261 261 257 259 257 258 257 258 258
282 282 282 283 281 268 270 268 271 268 266 265 265 264 264 264 265 267 267 268 270 271 270 269 269 268 266 265 264 265 267 265 264 265 267 266 260 258 259 258 258 256 257 255 256 254 259 260 257 257 257 256 255 257
277 275 280 275 266 265 265 264 265 265 266 264 265 265 264 266 266 267 267 267 270 269 269 266 266 262 258 258 258 258 261 260 263 263 264 265 265 261 259 255 255 257 260 260 262 259 256 259 258 256 254 255 256 256
267 280 276 275 267 268 264 263 265 265 265 264 265 266 265 264 265 264 262 268 267 263 261 261 260 259 262 261 257 254 254 254 258 261 262 263 265 265 263 259 258 260 259 257 258 259 258 256 254 254 254 256 257 259
278 278 274 271 267 264 262 265 264 264 264 264 264 263 261 261 260 261 265 261 260 256 254 254 253 253 254 254 250 253 250 255 261 259 259 260 259 258 258 256 254 259 259 257 252 254 255 252 254 255 257 259 260 260
278 269 267 266 266 261 259 259 262 263 264 263 263 259 259 260 260 262 262 260 257 255 254 253 251 255 255 254 255 253 253 254 258 259 258 260 262 258 256 253 252 252 253 252 252 253 254 255 256 258 260 260 259 259
264 261 264 259 258 258 256 257 260 262 260 261 261 259 258 257 258 260 259 257 255 254 251 253 254 254 255 255 253 254 252 254 255 260 258 256 258 257 257 255 253 252 248 254 254 253 256 258 259 259 259 259 258 258
263 257 256 254 255 258 257 259 258 258 261 259 256 255 254 255 257 256 255 254 251 248 248 249 249 251 254 250 251 255 254 253 253 260 255 252 253 258 257 255 255 256 248 249 251 254 256 257 257 257 258 259 259 259
260 253 251 251 252 253 257 258 259 261 260 258 257 254 253 253 252 255 253 248 247 246 247 248 248 249 251 251 254 255 255 252 251 252 250 249 248 248 252 253 253 255 252 252 253 254 255 255 257 258 259 260 261 260
253 248 253 254 255 255 258 258 257 256 256 255 255 250 252 252 254 251 250 249 247 248 248 250 249 250 251 253 254 253 253 253 252 250 251 250 247 247 247 250 251 257 256 256 256 256 256 257 258 259 259 260 260 262
252 251 254 255 257 255 251 252 251 250 249 250 251 249 249 248 248 245 247 248 248 247 250 252 253 254 254 253 253 249 249 249 256 255 253 253 255 255 254 255 256 257 257 257 259 263 263 263 263 263 262 261 263 263
257 254 257 256 256 253 251 248 248 247 247 246 247 249 249 249 248 247 247 247 248 249 250 250 252 255 256 257 254 255 250 247 247 252 253 253 253 253 253 255 256 257 257 257 259 260 264 263 264 264 265 266 267 268
250 254 255 255 254 252 250 247 246 244 242 242 241 246 245 245 248 248 247 249 248 251 252 254 254 252 252 250 249 252 255 249 247 247 246 248 250 252 255 257 258 257 257 258 259 261 263 263 263 265 265 265 263 264
252 251 255 254 252 248 245 245 242 246 247 249 249 243 245 246 246 248 249 249 250 250 251 251 251 251 249 246 248 247 248 248 248 249 249 252 254 257 258 258 259 258 258 259 260 262 263 262 263 263 264 263 262 263
247 247 246 247 249 250 245 247 249 250 249 246 248 242 242 244 247 247 249 249 249 249 249 251 252 249 247 247 247 247 247 247 248 255 258 261 262 263 262 259 259 257 255 256 260 260 260 261 261 260 262 262 261 261
Wind_Speed
24 24 25 27 28 25 26 26 26 26 26 26 27 26 25 25 24 14 4 12 5 4 7 10 8 8 4 5 6 4 7 2 2 3 2 2 3 3 5 4 5 4 5 3 2 2 1 8 0 2 3 4 5 7
26 26 27 28 28 29 29 27 26 26 28 26 27 29 28 28 27 21 5 7 8 6 4 3 8 14 16 18 8 4 3 1 2 1 2 2 4 3 3 5 2 3 1 3 3 3 2 3 3 1 2 4 4 5
26 26 25 26 27 28 29 30 29 29 29 29 27 31 28 29 29 23 5 6 3 3 5 4 12 8 6 11 10 6 3 5 4 2 1 2 7 2 4 4 3 3 2 3 2 3 3 3 3 2 3 4 4 4
27 27 27 27 28 28 28 29 30 30 30 30 29 28 27 27 29 26 6 7 4 2 4 6 2 5 4 9 14 17 3 3 3 3 4 4 4 5 4 4 4 2 3 3 4 3 4 6 3 1 1 1 3 3
29 30 31 30 30 27 28 29 31 30 30 31 31 28 28 26 25 17 5 7 8 6 4 4 2 2 1 6 12 12 8 4 3 3 5 5 4 4 3 2 6 6 6 5 2 5 1 3 3 1 0 2 2 2
31 32 32 31 31 31 31 30 30 32 31 31 30 29 29 27 21 5 4 6 10 6 2 3 0 1 3 1 5 8 6 3 3 4 4 5 4 4 4 4 4 5 4 3 3 5 3 3 3 2 2 1 1 1
30 32 32 32 32 31 30 32 31 33 32 32 30 30 32 27 6 4 5 5 18 7 4 3 4 2 2 2 1 1 3 3 3 3 5 3 3 3 3 8 3 9 7 6 5 6 3 6 4 5 3 2 0 0
31 32 32 32 32 32 34 32 33 35 32 33 30 30 33 31 8 3 1 20 13 5 3 4 4 1 4 3 3 2 3 1 3 2 1 2 2 2 7 9 2 7 6 5 7 3 2 4 5 4 2 0 1 2
31 32 32 33 33 33 34 34 33 33 31 32 31 19 5 2 3 3 19 22 2 3 5 4 5 3 4 2 2 2 2 3 1 3 2 2 2 9 9 6 10 11 10 8 7 4 2 4 4 3 2 2 3 3
33 34 33 33 32 33 34 34 32 32 31 30 9 4 3 1 18 14 8 5 4 3 3 4 1 3 4 2 2 2 0 2 3 1 0 3 6 6 6 5 5 11 8 12 7 3 4 4 6 5 6 3 3 3
33 34 33 33 33 34 33 33 31 31 26 3 3 3 1 11 3 1 3 3 2 3 4 2 5 5 2 3 4 1 2 1 3 2 3 2 5 4 4 3 3 4 8 5 3 2 3 3 6 5 4 6 5 4
34 36 35 34 33 31 32 31 30 17 4 5 2 2 1 1 2 4 3 1 4 6 3 4 3 2 3 0 3 2 2 2 5 1 2 4 4 4 3 1 2 3 3 6 1 3 3 3 2 3 3 5 5 5
35 34 34 35 33 31 30 31 30 29 24 4 5 4 3 1 4 7 8 5 4 5 6 4 4 3 3 2 4 3 4 4 1 2 4 4 3 5 3 3 3 1 1 2 3 2 3 3 2 5 5 5 5 6
33 33 33 34 34 32 33 33 32 17 6 4 5 5 6 4 5 7 4 4 2 4 7 4 4 2 2 3 1 3 2 1 1 2 4 2 4 4 3 3 4 6 7 5 5 5 5 5 5 5 6 5 5 8
33 30 31 30 29 25 16 15 12 2 3 4 4 6 6 2 2 2 1 1 1 5 5 5 4 2 2 4 1 3 1 3 5 3 2 3 4 3 4 4 6 6 7 6 4 5 6 6 5 5 5 5 5 5
29 26 15 23 29 28 21 11 3 3 2 4 3 3 0 1 1 2 3 2 3 5 3 3 4 3 2 3 3 5 4 5 2 3 3 3 3 4 4 4 6 3 7 7 6 4 4 5 5 5 4 6 5 5
25 4 18 27 28 27 22 2 1 3 5 5 3 1 2 1 3 4 4 3 4 3 3 3 4 3 4 2 2 4 5 3 3 3 2 3 5 6 3 4 5 6 5 3 4 5 4 1 2 3 5 1 4 6
8 5 20 24 21 10 2 2 1 3 3 0 3 2 2 1 2 3 3 5 5 3 4 3 6 4 5 5 3 4 4 3 3 4 4 5 4 3 3 5 4 5 5 5 4 2 2 3 4 3 3 4 6 5
7 6 17 19 12 3 2 3 2 3 2 3 1 2 1 3 2 2 4 3 1 0 5 1 3 3 3 3 3 1 2 2 2 3 4 3 3 3 2 2 2 3 4 4 4 2 1 2 3 3 3 3 5 6
17 13 13 13 7 3 4 1 0 1 2 2 1 2 2 3 2 2 3 2 2 2 2 2 2 1 2 1 2 0 1 1 2 4 3 2 3 2 2 1 1 1 2 2 1 1 1 0 1 1 3 3 5 7
6 4 9 3 4 4 1 2 1 1 1 1 1 1 2 1 3 1 2 1 1 1 1 1 1 1 1 2 2 1 2 1 1 2 2 4 3 2 1 1 1 1 0 0 1 2 0 1 2 3 4 6 5 6
4 4 1 2 3 1 1 1 0 1 0 0 1 1 2 2 2 2 2 1 2 3 3 3 2 2 3 3 3 2 2 4 4 3 4 4 3 2 1 1 1 1 2 1 0 1 2 2 3 4 4 6 6 6
3 4 2 3 2 0 2 1 0 1 1 1 1 2 3 2 2 3 2 2 2 2 2 2 3 2 3 3 3 3 2 5 3 3 3 2 1 2 1 3 3 2 2 1 1 2 3 4 4 4 4 5 5 6
5 3 2 3 2 3 2 2 1 1 1 2 2 3 1 1 3 1 3 2 2 2 4 5 4 3 0 2 3 3 4 3 3 1 4 3 1 3 4 3 1 0 1 2 1 2 3 4 5 4 5 6 5 5
4 3 1 1 2 4 2 1 1 1 2 1 3 2 1 1 2 2 2 2 3 3 4 5 3 4 3 2 2 3 2 5 3 3 5 4 1 2 3 1 1 1 0 2 3 4 4 4 4 5 5 5 6 7
5 1 2 3 0 3 4 3 4 5 3 3 2 1 2 2 4 1 1 3 2 2 3 3 4 4 2 2 3 4 5 4 4 1 3 4 4 3 3 2 2 1 1 1 2 4 5 5 5 6 5 5 5 5
5 4 2 1 2 3 2 1 1 2 3 3 4 3 2 4 1 1 1 1 2 2 3 4 3 3 3 4 4 3 3 3 3 1 0 1 1 1 1 0 3 3 3 3 4 4 4 4 5 5 5 4 3 4
3 4 5 3 3 1 3 3 3 2 1 2 3 4 5 4 2 2 2 1 3 5 5 4 3 4 4 3 4 5 3 3 1 2 2 2 3 2 2 3 3 8 6 5 4 3 4 4 4 4 4 3 3 2
2 2 1 3 3 5 4 3 1 0 2 1 4 3 3 0 1 2 3 4 4 3 3 3 2 2 2 0 2 2 3 4 2 5 4 2 4 3 4 5 4 4 4 5 6 4 6 4 3 2 2 2 2 2
2 1 3 4 5 4 2 1 1 1 2 2 2 4 3 1 2 1 3 3 3 3 3 3 4 3 3 4 3 3 4 3 4 3 2 2 4 6 6 5 6 5 5 5 5 4 5 4 3 4 4 5 5 6
1 0 5 4 4 1 1 2 1 0 2 3 1 5 3 1 2 1 2 3 3 3 3 4 5 6 6 5 4 4 3 2 3 3 3 4 6 6 4 5 5 4 4 4 3 3 4 7 5 8 10 10 8 9
3 4 5 5 1 1 1 1 0 4 4 4 4 3 3 4 4 4 4 4 4 4 5 5 5 4 3 2 2 3 7 7 7 5 6 5 5 6 4 4 4 4 3 3 3 4 8 7 7 8 9 10 9 9
4 3 4 5 4 3 3 3 6 3 5 4 3 0 1 3 2 4 2 1 0 2 4 4 4 3 4 5 5 4 5 6 9 12 11 9 8 6 2 2 3 3 3 3 6 6 9 10 8 7 9 9 8 8
Wind_Direction
316 317 314 310 310 306 308 305 301 298 294 286 269 265 257 222 227 226 207 182 187 243 243 210 219 221 211 211 254 312 319 195 295 7 316 336 278 316 291 288 319 317 327 340 297 299 317 359 281 27 355 320 328 338
312 309 307 306 304 307 305 304 306 309 302 294 289 272 255 226 220 216 221 177 192 230 272 246 233 229 218 227 244 209 248 70 255 240 217 268 266 270 309 291 214 273 275 300 273 328 75 34 91 4 278 281 320 326
312 311 311 309 310 310 309 309 306 305 304 303 303 303 275 244 219 209 194 146 151 232 248 271 246 238 234 231 203 220 207 207 200 202 205 260 263 233 266 250 279 232 161 238 254 170 179 138 144 359 302 304 337 355
309 307 306 305 304 303 307 308 306 304 309 303 308 293 305 285 216 210 187 161 151 150 241 252 164 222 193 177 192 208 209 168 148 176 219 235 247 207 258 297 258 295 168 210 255 177 151 202 189 206 218 292 30 21
310 308 306 304 303 304 304 308 305 303 307 302 304 298 290 287 247 205 186 174 176 183 204 257 261 225 359 214 193 201 199 184 161 176 217 224 235 238 228 250 243 185 192 194 240 149 174 145 171 200 321 23 25 13
313 311 306 304 306 310 307 305 307 306 302 302 303 304 292 287 251 129 175 199 186 167 195 253 135 173 24 4 196 204 185 160 182 200 213 228 249 249 254 243 247 187 184 164 170 162 169 138 161 140 181 154 29 357
309 305 308 307 306 305 307 305 308 307 307 304 302 303 300 290 197 178 196 166 159 132 139 264 268 93 94 94 116 194 174 187 205 224 225 237 215 257 251 249 205 190 172 164 152 137 185 195 182 160 157 206 93 270
310 308 310 312 309 308 304 307 307 306 307 305 300 295 300 285 120 169 100 137 133 105 167 198 249 239 185 153 171 13 188 172 200 277 243 226 265 241 251 236 183 158 152 174 186 186 60 99 130 141 103 116 197 228
309 304 307 307 306 306 306 307 303 302 302 299 298 314 334 65 148 144 156 159 115 144 188 182 176 210 160 103 87 115 326 220 68 244 211 245 197 225 232 198 184 179 181 187 148 138 158 205 181 159 173 195 227 242
309 308 307 306 304 306 303 302 303 304 300 300 300 251 224 183 130 104 154 152 185 184 217 202 72 178 174 165 112 138 185 224 227 160 91 219 259 285 284 257 228 179 162 137 125 193 196 229 201 192 207 201 223 235
310 307 305 304 302 301 301 297 300 302 303 220 223 219 257 142 77 93 143 155 147 239 214 161 187 154 209 162 152 259 143 146 249 143 237 211 265 260 338 305 350 134 149 145 94 83 128 159 171 185 221 232 231 241
311 307 311 305 301 298 297 295 294 298 285 280 148 293 160 111 107 154 157 88 216 223 170 163 161 120 120 128 127 152 162 175 245 93 224 255 255 272 309 176 59 51 125 153 168 147 155 143 130 170 231 241 233 236
310 307 311 310 305 300 291 289 290 293 295 212 183 200 163 329 151 182 186 214 214 182 173 163 128 118 133 87 79 154 177 226 168 202 239 247 293 292 278 191 178 176 147 161 178 186 169 185 186 208 244 236 250 257
309 308 311 312 308 302 301 296 291 281 233 224 149 207 204 169 228 197 191 174 195 115 137 121 101 120 122 109 114 164 93 249 168 253 237 246 246 263 267 227 163 189 195 198 202 193 206 210 235 239 234 245 253 263
304 308 310 314 329 323 331 335 302 266 213 243 169 217 201 210 52 147 79 189 127 137 125 110 91 130 104 110 22 106 88 249 221 231 237 248 258 268 274 206 226 193 172 193 192 200 218 214 225 279 251 242 240 267
300 305 302 319 324 328 327 327 296 194 221 209 162 121 283 63 183 171 164 148 197 156 120 77 120 127 126 121 148 210 141 228 240 226 252 292 275 260 254 235 205 224 182 177 184 199 211 213 226 254 290 254 237 238
296 248 312 318 320 325 313 295 288 243 220 189 219 5 158 247 167 160 147 170 167 163 168 140 135 161 116 91 236 197 208 210 215 258 271 251 271 289 264 254 204 177 221 210 153 195 217 195 268 280 295 100 270 265
292 277 295 304 318 308 337 13 25 292 251 258 156 231 184 75 103 125 125 143 165 185 178 173 129 142 175 173 231 229 231 270 248 266 289 296 289 299 250 238 186 189 187 180 201 194 207 223 257 285 294 301 297 280
255 245 275 298 316 324 332 337 39 287 287 280 309 44 8 106 55 33 111 108 83 117 126 106 110 173 209 206 197 207 237 240 294 313 299 329 334 329 287 204 207 169 178 194 191 209 244 262 289 296 299 310 302 308
272 287 298 302 356 20 293 309 28 280 307 3 21 48 30 66 70 92 101 98 134 180 140 146 208 212 151 206 200 210 287 328 306 317 315 14 24 351 338 69 118 150 177 217 232 248 297 14 182 284 298 306 310 306
298 271 295 347 32 72 57 329 41 52 350 2 97 314 70 50 70 69 89 323 99 41 79 48 51 31 310 298 325 332 357 357 288 240 285 302 18 354 74 109 144 125 157 135 33 63 321 301 312 323 314 301 286 278
216 264 183 153 100 119 27 291 276 110 20 345 296 3 73 79 83 50 309 71 58 43 14 353 8 324 351 21 341 -0 303 303 274 273 275 293 306 342 36 59 128 94 74 63 68 352 323 312 315 304 297 297 286 292
175 200 179 122 135 163 259 255 148 343 218 153 225 82 40 36 357 292 81 39 78 41 330 322 313 285 283 324 336 7 348 340 353 358 350 342 355 14 72 83 33 74 108 67 323 321 311 310 297 299 300 307 320 323
47 50 188 159 164 182 4 18 324 151 111 45 68 84 46 2 315 26 95 51 5 323 10 353 339 328 282 13 33 355 345 325 307 26 6 330 79 62 52 77 96 87 16 337 313 304 307 317 312 329 339 338 337 330
101 273 193 152 1 95 99 113 95 85 98 69 114 115 174 306 88 64 63 354 356 5 355 340 3 24 22 327 324 331 331 20 356 1 20 357 1 138 96 83 75 18 342 325 352 344 332 336 352 346 343 347 339 332
219 296 152 179 317 145 176 140 173 162 140 94 65 61 6 93 68 44 330 327 324 320 338 353 346 338 12 16 308 342 343 349 320 23 34 6 16 52 73 58 330 269 188 25 337 322 340 353 345 347 345 342 339 344
188 249 288 244 125 117 83 119 151 123 115 139 159 149 91 71 72 282 5 12 298 268 273 267 252 257 280 298 294 318 336 13 26 71 287 338 336 358 44 51 310 319 343 285 258 270 306 319 326 332 331 333 344 358
168 136 144 233 70 329 120 70 60 73 97 326 71 58 111 149 184 331 298 310 271 298 286 265 228 232 257 287 330 334 335 347 236 233 250 249 238 257 313 290 267 298 286 269 278 261 246 259 286 307 318 326 327 343
54 301 122 63 79 51 40 37 114 15 334 59 109 123 135 115 269 294 295 311 303 297 335 341 329 282 263 323 66 18 6 350 47 67 52 328 338 327 356 331 323 316 319 329 320 310 255 236 235 270 297 295 341 346
112 321 97 61 53 31 339 286 326 333 9 65 102 100 78 33 254 243 306 328 354 328 293 286 298 345 7 21 3 15 44 26 29 74 105 336 297 309 312 321 327 327 336 333 333 345 23 49 43 38 55 62 55 69
249 142 84 55 83 24 354 7 350 -0 38 51 349 87 130 238 312 309 323 323 294 322 0 11 36 28 30 23 20 359 345 271 9 341 260 270 277 282 306 318 306 323 327 334 3 24 62 67 61 76 72 69 55 64
28 57 116 105 139 246 40 70 12 68 359 50 26 57 31 49 25 309 329 343 2 20 12 14 21 7 342 308 291 249 248 286 299 303 307 288 293 293 294 283 323 336 349 31 15 60 71 73 73 77 79 71 67 71
72 58 61 91 53 22 325 67 28 52 40 43 18 118 115 134 145 270 305 137 73 322 335 326 299 276 287 282 270 282 290 280 286 297 294 296 286 296 335 324 11 16 38 48 60 64 70 79 80 82 84 75 66 67